User: anonymous   Login
Location: Unspecified
(40.7945°N, 0.0000°E)
Time: 23:07:40
(UTC+00:00)
Language:

AIST 2D - Orbit

View from above orbital plane
View from above orbital plane
View from above satellite
View from above satellite

Ground track
Ground track

The orbit data is extracted from the following two-line orbital elements,

1 41465U 16026B   20217.74522530  .00001203  00000-0  37806-4 0  9999
2 41465  97.1466 106.2030 0013313  77.0528   7.6357 15.34811485238839
Epoch (UTC): 04 August 2020 17:53:07
Eccentricity: 0.0013313
inclination: 97.1466°
perigee height: 452 km
apogee height: 470 km
right ascension of ascending node: 106.2030°
argument of perigee: 77.0528°
revolutions per day: 15.34811485
mean anomaly at epoch: 7.6357°
orbit number at epoch: 23883

The dashed part of the orbit path shows where the satellite is in the earth's shadow,  

DLR